Flag for Moldova Weather past 2 weeks in Tiraspol, Moldova

Now
81 °F

Sunny.


Feels Like: 80 °F
Forecast: 57 / 85 °F
Wind: 5 mph from Southeast

Location: Chisinau International Airport

Current Time: May 22, 2015 at 5:47:39 PM

Latest Report: May 22, 2015 at 5:00 PM


Visibility: 10 mi

Pressure: 30.01 "Hg

Humidity: 32%

Dew point: 48 °F

Location of TiraspolLocation

Historic Weather in Tiraspol — Graph

°F

Tiraspol temperature yesterday

Maximum temperature yesterday: 81 °F (at 2:30 PM)
Minimum temperature yesterday: 50 °F (at 5:30 AM)
Average temperature yesterday: 68 °F

Past Weeks' High & Low Weather Summary

 TemperatureHumidityPressure
High81 °F (May 20, 2:30 PM)88% (May 7, 8:30 PM)30.24 "Hg (May 7, 8:30 PM)
Low43 °F (May 10, 5:30 AM)21% (May 8, 5:00 PM)29.62 "Hg (May 14, 5:30 PM)
Average63 °F52%30.00 "Hg
* Reported May 7 4:00 PM — May 22 4:30 PM, Tiraspol, Weather by CustomWeather, © 2015

Note: Actual official high and low records may vary slightly from our data, if they occured in-between our weather recording intervals... More about our weather records

Advertising

Tiraspol weather history for previous 24 hours

 ConditionsComfort  
Time TempWeatherWind HumidityBarometerVisibility
4:30 PM
Fri, May 22
81 °FPassing clouds.8 mph30%30.01 "HgN/A
4:00 PM81 °FPassing clouds.10 mph28%30.01 "HgN/A
3:30 PM81 °FPassing clouds.9 mph28%30.01 "HgN/A
3:00 PM81 °FPassing clouds.7 mph30%30.04 "HgN/A
2:30 PM79 °FSunny.3 mph30%30.04 "Hg10 mi
2:00 PM79 °FPassing clouds.8 mph30%30.04 "HgN/A
1:30 PM79 °FPassing clouds.7 mph28%30.04 "HgN/A
1:00 PM79 °FPassing clouds.8 mph30%30.04 "HgN/A
12:30 PM79 °FPassing clouds.7 mph26%30.07 "HgN/A
12:00 PM77 °FPassing clouds.7 mph30%30.07 "HgN/A
11:30 AM77 °FPassing clouds.7 mph30%30.07 "HgN/A
11:00 AM75 °FPassing clouds.7 mph39%30.07 "HgN/A
10:30 AM73 °FPassing clouds.6 mph44%30.07 "HgN/A
10:00 AM72 °FSunny.3 mph44%30.07 "Hg10 mi
9:30 AM70 °FSunny.2 mph53%30.07 "Hg10 mi
9:00 AM68 °FSunny.1 mph53%30.07 "Hg10 mi
8:30 AM64 °FSunny.1 mph60%30.07 "Hg10 mi
8:00 AM63 °FSunny.1 mph64%30.07 "Hg10 mi
7:30 AM59 °FSunny.No wind72%30.04 "Hg10 mi
7:00 AM54 °FSunny.No wind82%30.04 "Hg10 mi
6:30 AM54 °FSunny.No wind77%30.04 "Hg10 mi
6:00 AM52 °FClear.No wind82%30.04 "Hg10 mi
5:30 AM52 °FClear.No wind82%30.04 "Hg10 mi
5:00 AM54 °FClear.3 mph77%30.04 "Hg10 mi
4:30 AM52 °FClear.2 mph77%30.07 "Hg10 mi
4:00 AM55 °FClear.No wind67%30.07 "Hg10 mi
3:30 AM55 °FClear.3 mph72%30.07 "Hg10 mi
3:00 AM54 °FClear.No wind72%30.07 "Hg10 mi
2:30 AM54 °FClear.3 mph72%30.07 "Hg10 mi
2:00 AM55 °FClear.2 mph72%30.07 "Hg10 mi
1:30 AM57 °FClear.3 mph63%30.04 "Hg10 mi
1:00 AM57 °FClear.No wind63%30.04 "Hg10 mi
12:30 AM57 °FPassing clouds.3 mph63%30.04 "HgN/A
12:00 AM63 °FClear.3 mph52%30.04 "Hg10 mi
11:30 PM
Thu, May 21
63 °FClear.No wind52%30.04 "Hg10 mi
11:00 PM68 °FClear.1 mph40%30.04 "Hg10 mi
10:30 PM68 °FClear.No wind43%30.04 "Hg10 mi
10:00 PM70 °FClear.3 mph40%30.04 "Hg10 mi
9:30 PM70 °FSunny.2 mph40%30.01 "Hg10 mi
9:00 PM73 °FSunny.6 mph33%30.01 "Hg10 mi
8:30 PM75 °FSunny.3 mph31%30.01 "Hg10 mi
8:00 PM77 °FSunny.5 mph30%30.01 "Hg10 mi
7:30 PM77 °FSunny.7 mph32%30.01 "Hg10 mi
7:00 PM79 °FSunny.12 mph28%30.01 "Hg10 mi
6:30 PM79 °FSunny.12 mph30%30.01 "Hg10 mi
6:00 PM81 °FSunny.10 mph30%30.01 "Hg10 mi
5:30 PM81 °FSunny.10 mph30%30.01 "Hg10 mi
5:00 PM81 °FSunny.13 mph28%30.01 "Hg10 mi
Weather by CustomWeather, © 2015

See weather overviewHow to use our weather pages